owner,sensor,date,latitude,longitude,vertical_datum,mass_concentration_of_oxygen_in_sea_water,qcFlag 
SCCF RECON,ioos:station:SCCF:18:1,2019-04-01T04:00:00Z,26.6955,-81.8138,1.454,7.98,1111122 
SCCF RECON,ioos:station:SCCF:18:1,2019-04-01T05:00:00Z,26.6955,-81.8138,1.49,8.09,1111122 
SCCF RECON,ioos:station:SCCF:18:1,2019-04-01T06:00:00Z,26.6955,-81.8138,1.499,7.87,1111122 
SCCF RECON,ioos:station:SCCF:18:1,2019-04-01T07:00:00Z,26.6955,-81.8138,1.49,7.51,1111122 
SCCF RECON,ioos:station:SCCF:18:1,2019-04-01T08:00:00Z,26.6955,-81.8138,1.42,7.89,1111122 
SCCF RECON,ioos:station:SCCF:18:1,2019-04-01T09:00:00Z,26.6955,-81.8138,1.349,7.46,1111122 
SCCF RECON,ioos:station:SCCF:18:1,2019-04-01T10:00:00Z,26.6955,-81.8138,1.29,7.81,1111122 
SCCF RECON,ioos:station:SCCF:18:1,2019-04-01T11:00:00Z,26.6955,-81.8138,1.25,7.76,1111122 
SCCF RECON,ioos:station:SCCF:18:1,2019-04-01T12:00:00Z,26.6955,-81.8138,1.208,7.7,1111122 
SCCF RECON,ioos:station:SCCF:18:1,2019-04-01T13:00:00Z,26.6955,-81.8138,1.161,7.65,1111122 
SCCF RECON,ioos:station:SCCF:18:1,2019-04-01T14:00:00Z,26.6955,-81.8138,1.121,7.69,1111122 
SCCF RECON,ioos:station:SCCF:18:1,2019-04-01T15:00:00Z,26.6955,-81.8138,1.14,7.93,1111122 
SCCF RECON,ioos:station:SCCF:18:1,2019-04-01T16:00:00Z,26.6955,-81.8138,1.212,7.37,1111122 
SCCF RECON,ioos:station:SCCF:18:1,2019-04-01T17:00:00Z,26.6955,-81.8138,1.308,8.33,1111122 
SCCF RECON,ioos:station:SCCF:18:1,2019-04-01T18:00:00Z,26.6955,-81.8138,1.37,8.4,1111122 
SCCF RECON,ioos:station:SCCF:18:1,2019-04-01T19:00:00Z,26.6955,-81.8138,1.441,8.52,1111122 
SCCF RECON,ioos:station:SCCF:18:1,2019-04-01T20:00:00Z,26.6955,-81.8138,1.48,8.39,1111122 
SCCF RECON,ioos:station:SCCF:18:1,2019-04-01T21:00:00Z,26.6955,-81.8138,1.483,8.09,1111122 
SCCF RECON,ioos:station:SCCF:18:1,2019-04-01T22:00:00Z,26.6955,-81.8138,1.424,8.02,1111122 
SCCF RECON,ioos:station:SCCF:18:1,2019-04-01T23:00:00Z,26.6955,-81.8138,1.359,8.15,1111122 
SCCF RECON,ioos:station:SCCF:18:1,2019-04-02T04:00:00Z,26.6955,-81.8138,1.453,7.2,1111122 
SCCF RECON,ioos:station:SCCF:18:1,2019-04-02T05:00:00Z,26.6955,-81.8138,1.49,7.22,1111122 
SCCF RECON,ioos:station:SCCF:18:1,2019-04-02T06:00:00Z,26.6955,-81.8138,1.501,7.25,1111122 
SCCF RECON,ioos:station:SCCF:18:1,2019-04-02T07:00:00Z,26.6955,-81.8138,1.522,7.02,1111122 
SCCF RECON,ioos:station:SCCF:18:1,2019-04-02T08:00:00Z,26.6955,-81.8138,1.518,7.17,1111122 
SCCF RECON,ioos:station:SCCF:18:1,2019-04-02T09:00:00Z,26.6955,-81.8138,1.451,7.06,1111122 
SCCF RECON,ioos:station:SCCF:18:1,2019-04-02T10:00:00Z,26.6955,-81.8138,1.379,7.14,1111122 
SCCF RECON,ioos:station:SCCF:18:1,2019-04-02T11:00:00Z,26.6955,-81.8138,1.321,7.09,1111122 
SCCF RECON,ioos:station:SCCF:18:1,2019-04-02T12:00:00Z,26.6955,-81.8138,1.288,7.17,1111122 
SCCF RECON,ioos:station:SCCF:18:1,2019-04-02T13:00:00Z,26.6955,-81.8138,1.238,7.23,1111122 
SCCF RECON,ioos:station:SCCF:18:1,2019-04-02T14:00:00Z,26.6955,-81.8138,1.201,7.28,1111122 
SCCF RECON,ioos:station:SCCF:18:1,2019-04-02T15:00:00Z,26.6955,-81.8138,1.242,7.46,1111122 
SCCF RECON,ioos:station:SCCF:18:1,2019-04-02T16:00:00Z,26.6955,-81.8138,1.34,7.36,1111122 
SCCF RECON,ioos:station:SCCF:18:1,2019-04-02T17:00:00Z,26.6955,-81.8138,1.43,7.41,1111122 
SCCF RECON,ioos:station:SCCF:18:1,2019-04-02T18:00:00Z,26.6955,-81.8138,1.474,7.47,1111122 
SCCF RECON,ioos:station:SCCF:18:1,2019-04-02T19:00:00Z,26.6955,-81.8138,1.512,7.44,1111122 
SCCF RECON,ioos:station:SCCF:18:1,2019-04-02T20:00:00Z,26.6955,-81.8138,1.55,7.6,1111122 
SCCF RECON,ioos:station:SCCF:18:1,2019-04-02T21:00:00Z,26.6955,-81.8138,1.55,7.14,1111122 
SCCF RECON,ioos:station:SCCF:18:1,2019-04-02T22:00:00Z,26.6955,-81.8138,1.493,7.44,1111122 
SCCF RECON,ioos:station:SCCF:18:1,2019-04-02T23:00:00Z,26.6955,-81.8138,1.43,7.52,1111122 
SCCF RECON,ioos:station:SCCF:18:1,2019-04-03T04:00:00Z,26.6955,-81.8138,1.321,6.94,1111122 
SCCF RECON,ioos:station:SCCF:18:1,2019-04-03T05:00:00Z,26.6955,-81.8138,1.394,6.83,1111122 
SCCF RECON,ioos:station:SCCF:18:1,2019-04-03T06:00:00Z,26.6955,-81.8138,1.449,5.47,1111122 
SCCF RECON,ioos:station:SCCF:18:1,2019-04-03T07:00:00Z,26.6955,-81.8138,1.458,6.45,1111122 
SCCF RECON,ioos:station:SCCF:18:1,2019-04-03T08:00:00Z,26.6955,-81.8138,1.45,6.53,1111122 
SCCF RECON,ioos:station:SCCF:18:1,2019-04-03T09:00:00Z,26.6955,-81.8138,1.398,6.38,1111122 
SCCF RECON,ioos:station:SCCF:18:1,2019-04-03T10:00:00Z,26.6955,-81.8138,1.32,6.45,1111122 
SCCF RECON,ioos:station:SCCF:18:1,2019-04-03T11:00:00Z,26.6955,-81.8138,1.261,6.35,1111122 
SCCF RECON,ioos:station:SCCF:18:1,2019-04-03T12:00:00Z,26.6955,-81.8138,1.229,6.26,1111122 
SCCF RECON,ioos:station:SCCF:18:1,2019-04-03T13:00:00Z,26.6955,-81.8138,1.182,6.35,1111122 
SCCF RECON,ioos:station:SCCF:18:1,2019-04-03T14:00:00Z,26.6955,-81.8138,1.133,6.42,1111122 
SCCF RECON,ioos:station:SCCF:18:1,2019-04-03T15:00:00Z,26.6955,-81.8138,1.085,6.62,1111122 
SCCF RECON,ioos:station:SCCF:18:1,2019-04-03T16:00:00Z,26.6955,-81.8138,1.068,6.75,1111122 
SCCF RECON,ioos:station:SCCF:18:1,2019-04-03T17:00:00Z,26.6955,-81.8138,1.124,6.77,1111122 
SCCF RECON,ioos:station:SCCF:18:1,2019-04-03T18:00:00Z,26.6955,-81.8138,1.202,7.45,1111122 
SCCF RECON,ioos:station:SCCF:18:1,2019-04-03T19:00:00Z,26.6955,-81.8138,1.27,7.45,1111122 
SCCF RECON,ioos:station:SCCF:18:1,2019-04-03T20:00:00Z,26.6955,-81.8138,1.306,7.41,1111122 
SCCF RECON,ioos:station:SCCF:18:1,2019-04-03T21:00:00Z,26.6955,-81.8138,1.332,7.64,1111122 
SCCF RECON,ioos:station:SCCF:18:1,2019-04-03T22:00:00Z,26.6955,-81.8138,1.31,7.94,1111122 
SCCF RECON,ioos:station:SCCF:18:1,2019-04-03T23:00:00Z,26.6955,-81.8138,1.25,7.34,1111122 
SCCF RECON,ioos:station:SCCF:18:1,2019-04-04T04:00:00Z,26.6955,-81.8138,1.154,6.79,1111122 
SCCF RECON,ioos:station:SCCF:18:1,2019-04-04T05:00:00Z,26.6955,-81.8138,1.22,6.78,1111122 
SCCF RECON,ioos:station:SCCF:18:1,2019-04-04T06:00:00Z,26.6955,-81.8138,1.28,6.91,1111122 
SCCF RECON,ioos:station:SCCF:18:1,2019-04-04T07:00:00Z,26.6955,-81.8138,1.322,6.62,1111122 
SCCF RECON,ioos:station:SCCF:18:1,2019-04-04T08:00:00Z,26.6955,-81.8138,1.36,6.57,1111122 
SCCF RECON,ioos:station:SCCF:18:1,2019-04-04T09:00:00Z,26.6955,-81.8138,1.37,6.59,1111122 
SCCF RECON,ioos:station:SCCF:18:1,2019-04-04T10:00:00Z,26.6955,-81.8138,1.322,6.56,1111122 
SCCF RECON,ioos:station:SCCF:18:1,2019-04-04T11:00:00Z,26.6955,-81.8138,1.251,6.12,1111122 
SCCF RECON,ioos:station:SCCF:18:1,2019-04-04T12:00:00Z,26.6955,-81.8138,1.2,6.39,1111122 
SCCF RECON,ioos:station:SCCF:18:1,2019-04-04T13:00:00Z,26.6955,-81.8138,1.159,6.33,1111122 
SCCF RECON,ioos:station:SCCF:18:1,2019-04-04T14:00:00Z,26.6955,-81.8138,1.109,6.38,1111122 
SCCF RECON,ioos:station:SCCF:18:1,2019-04-04T15:00:00Z,26.6955,-81.8138,1.07,6.41,1111122 
SCCF RECON,ioos:station:SCCF:18:1,2019-04-04T16:00:00Z,26.6955,-81.8138,1.088,6.57,1111122 
SCCF RECON,ioos:station:SCCF:18:1,2019-04-04T17:00:00Z,26.6955,-81.8138,1.151,6.51,1111122 
SCCF RECON,ioos:station:SCCF:18:1,2019-04-04T18:00:00Z,26.6955,-81.8138,1.23,7.06,1111122 
SCCF RECON,ioos:station:SCCF:18:1,2019-04-04T19:00:00Z,26.6955,-81.8138,1.273,7.16,1111122 
SCCF RECON,ioos:station:SCCF:18:1,2019-04-04T20:00:00Z,26.6955,-81.8138,1.308,7.37,1111122 
SCCF RECON,ioos:station:SCCF:18:1,2019-04-04T21:00:00Z,26.6955,-81.8138,1.35,7.57,1111122 
SCCF RECON,ioos:station:SCCF:18:1,2019-04-04T22:00:00Z,26.6955,-81.8138,1.363,7.58,1111122 
SCCF RECON,ioos:station:SCCF:18:1,2019-04-04T23:00:00Z,26.6955,-81.8138,1.312,7.3,1111122 
SCCF RECON,ioos:station:SCCF:18:1,2019-04-05T04:00:00Z,26.6955,-81.8138,1.12,6.67,1111122 
SCCF RECON,ioos:station:SCCF:18:1,2019-04-05T05:00:00Z,26.6955,-81.8138,1.199,6.74,1111122 
SCCF RECON,ioos:station:SCCF:18:1,2019-04-05T06:00:00Z,26.6955,-81.8138,1.28,6.47,1111122 
SCCF RECON,ioos:station:SCCF:18:1,2019-04-05T07:00:00Z,26.6955,-81.8138,1.323,6.61,1111122 
SCCF RECON,ioos:station:SCCF:18:1,2019-04-05T08:00:00Z,26.6955,-81.8138,1.383,6.46,1111122 
SCCF RECON,ioos:station:SCCF:18:1,2019-04-05T09:00:00Z,26.6955,-81.8138,1.43,6.38,1111122 
SCCF RECON,ioos:station:SCCF:18:1,2019-04-05T10:00:00Z,26.6955,-81.8138,1.42,6.4,1111122 
SCCF RECON,ioos:station:SCCF:18:1,2019-04-05T11:00:00Z,26.6955,-81.8138,1.34,6.26,1111122 
SCCF RECON,ioos:station:SCCF:18:1,2019-04-05T12:00:00Z,26.6955,-81.8138,1.27,6.25,1111122 
SCCF RECON,ioos:station:SCCF:18:1,2019-04-05T13:00:00Z,26.6955,-81.8138,1.221,6.17,1111122 
SCCF RECON,ioos:station:SCCF:18:1,2019-04-05T14:00:00Z,26.6955,-81.8138,1.19,6.16,1111122 
SCCF RECON,ioos:station:SCCF:18:1,2019-04-05T15:00:00Z,26.6955,-81.8138,1.16,6.24,1111122 
SCCF RECON,ioos:station:SCCF:18:1,2019-04-05T16:00:00Z,26.6955,-81.8138,1.167,6.29,1111122 
SCCF RECON,ioos:station:SCCF:18:1,2019-04-05T17:00:00Z,26.6955,-81.8138,1.229,6.64,1111122 
SCCF RECON,ioos:station:SCCF:18:1,2019-04-05T18:00:00Z,26.6955,-81.8138,1.32,7.13,1111122 
SCCF RECON,ioos:station:SCCF:18:1,2019-04-05T19:00:00Z,26.6955,-81.8138,1.4,7.33,1111122 
SCCF RECON,ioos:station:SCCF:18:1,2019-04-05T20:00:00Z,26.6955,-81.8138,1.47,7.37,1111122 
SCCF RECON,ioos:station:SCCF:18:1,2019-04-05T21:00:00Z,26.6955,-81.8138,1.521,7.59,1111122 
SCCF RECON,ioos:station:SCCF:18:1,2019-04-05T22:00:00Z,26.6955,-81.8138,1.548,7.26,1111122 
SCCF RECON,ioos:station:SCCF:18:1,2019-04-05T23:00:00Z,26.6955,-81.8138,1.53,7.4,1111122 
SCCF RECON,ioos:station:SCCF:18:1,2019-04-06T04:00:00Z,26.6955,-81.8138,1.23,6.97,1111122 
SCCF RECON,ioos:station:SCCF:18:1,2019-04-06T05:00:00Z,26.6955,-81.8138,1.238,6.67,1111122 
SCCF RECON,ioos:station:SCCF:18:1,2019-04-06T06:00:00Z,26.6955,-81.8138,1.29,6.38,1111122 
SCCF RECON,ioos:station:SCCF:18:1,2019-04-06T07:00:00Z,26.6955,-81.8138,1.37,5.73,1111122 
SCCF RECON,ioos:station:SCCF:18:1,2019-04-06T08:00:00Z,26.6955,-81.8138,1.43,6.08,1111122 
SCCF RECON,ioos:station:SCCF:18:1,2019-04-06T09:00:00Z,26.6955,-81.8138,1.47,6.02,1111122 
SCCF RECON,ioos:station:SCCF:18:1,2019-04-06T10:00:00Z,26.6955,-81.8138,1.52,5.95,1111122 
SCCF RECON,ioos:station:SCCF:18:1,2019-04-06T11:00:00Z,26.6955,-81.8138,1.48,6.04,1111122 
SCCF RECON,ioos:station:SCCF:18:1,2019-04-06T12:00:00Z,26.6955,-81.8138,1.41,5.97,1111122 
SCCF RECON,ioos:station:SCCF:18:1,2019-04-06T13:00:00Z,26.6955,-81.8138,1.351,6.02,1111122 
SCCF RECON,ioos:station:SCCF:18:1,2019-04-06T14:00:00Z,26.6955,-81.8138,1.309,5.93,1111122 
SCCF RECON,ioos:station:SCCF:18:1,2019-04-06T15:00:00Z,26.6955,-81.8138,1.27,6.28,1111122 
SCCF RECON,ioos:station:SCCF:18:1,2019-04-06T16:00:00Z,26.6955,-81.8138,1.23,6.2,1111122 
SCCF RECON,ioos:station:SCCF:18:1,2019-04-06T17:00:00Z,26.6955,-81.8138,1.233,6.47,1111122 
SCCF RECON,ioos:station:SCCF:18:1,2019-04-06T18:00:00Z,26.6955,-81.8138,1.3,6.64,1111122 
SCCF RECON,ioos:station:SCCF:18:1,2019-04-06T19:00:00Z,26.6955,-81.8138,1.4,6.94,1111122 
SCCF RECON,ioos:station:SCCF:18:1,2019-04-06T20:00:00Z,26.6955,-81.8138,1.44,7.04,1111122 
SCCF RECON,ioos:station:SCCF:18:1,2019-04-06T21:00:00Z,26.6955,-81.8138,1.479,7.17,1111122 
SCCF RECON,ioos:station:SCCF:18:1,2019-04-06T22:00:00Z,26.6955,-81.8138,1.5,7.22,1111122 
SCCF RECON,ioos:station:SCCF:18:1,2019-04-06T23:00:00Z,26.6955,-81.8138,1.47,7.08,1111122 
SCCF RECON,ioos:station:SCCF:18:1,2019-04-07T04:00:00Z,26.6955,-81.8138,1.18,6.47,1111122 
SCCF RECON,ioos:station:SCCF:18:1,2019-04-07T05:00:00Z,26.6955,-81.8138,1.13,6.25,1111122 
SCCF RECON,ioos:station:SCCF:18:1,2019-04-07T06:00:00Z,26.6955,-81.8138,1.144,6.22,1111122 
SCCF RECON,ioos:station:SCCF:18:1,2019-04-07T07:00:00Z,26.6955,-81.8138,1.213,6.3,1111122 
SCCF RECON,ioos:station:SCCF:18:1,2019-04-07T08:00:00Z,26.6955,-81.8138,1.279,5.92,1111122 
SCCF RECON,ioos:station:SCCF:18:1,2019-04-07T09:00:00Z,26.6955,-81.8138,1.337,5.96,1111122 
SCCF RECON,ioos:station:SCCF:18:1,2019-04-07T10:00:00Z,26.6955,-81.8138,1.372,5.98,1111122 
SCCF RECON,ioos:station:SCCF:18:1,2019-04-07T11:00:00Z,26.6955,-81.8138,1.4,5.98,1111122 
SCCF RECON,ioos:station:SCCF:18:1,2019-04-07T12:00:00Z,26.6955,-81.8138,1.4,5.85,1111122 
SCCF RECON,ioos:station:SCCF:18:1,2019-04-07T13:00:00Z,26.6955,-81.8138,1.347,5.78,1111122 
SCCF RECON,ioos:station:SCCF:18:1,2019-04-07T14:00:00Z,26.6955,-81.8138,1.299,5.74,1111122 
SCCF RECON,ioos:station:SCCF:18:1,2019-04-07T15:00:00Z,26.6955,-81.8138,1.26,5.85,1111122 
SCCF RECON,ioos:station:SCCF:18:1,2019-04-07T16:00:00Z,26.6955,-81.8138,1.23,6.11,1111122 
SCCF RECON,ioos:station:SCCF:18:1,2019-04-07T17:00:00Z,26.6955,-81.8138,1.215,6.4,1111122 
SCCF RECON,ioos:station:SCCF:18:1,2019-04-07T18:00:00Z,26.6955,-81.8138,1.25,6.11,1111122 
SCCF RECON,ioos:station:SCCF:18:1,2019-04-07T19:00:00Z,26.6955,-81.8138,1.38,7.07,1111122 
SCCF RECON,ioos:station:SCCF:18:1,2019-04-07T20:00:00Z,26.6955,-81.8138,1.43,7.24,1111122 
SCCF RECON,ioos:station:SCCF:18:1,2019-04-07T21:00:00Z,26.6955,-81.8138,1.494,7.16,1111122 
SCCF RECON,ioos:station:SCCF:18:1,2019-04-07T22:00:00Z,26.6955,-81.8138,1.57,7.25,1111122 
SCCF RECON,ioos:station:SCCF:18:1,2019-04-07T23:00:00Z,26.6955,-81.8138,1.57,7.07,1111122 
SCCF RECON,ioos:station:SCCF:18:1,2019-04-08T04:00:00Z,26.6955,-81.8138,1.233,6.57,1111122 
SCCF RECON,ioos:station:SCCF:18:1,2019-04-08T05:00:00Z,26.6955,-81.8138,1.175,6.12,1111122 
SCCF RECON,ioos:station:SCCF:18:1,2019-04-08T06:00:00Z,26.6955,-81.8138,1.141,6.01,1111122 
SCCF RECON,ioos:station:SCCF:18:1,2019-04-08T07:00:00Z,26.6955,-81.8138,1.197,6.18,1111122 
SCCF RECON,ioos:station:SCCF:18:1,2019-04-08T08:00:00Z,26.6955,-81.8138,1.28,5.99,1111122 
SCCF RECON,ioos:station:SCCF:18:1,2019-04-08T09:00:00Z,26.6955,-81.8138,1.338,6.05,1111122 
SCCF RECON,ioos:station:SCCF:18:1,2019-04-08T10:00:00Z,26.6955,-81.8138,1.362,6.01,1111122 
SCCF RECON,ioos:station:SCCF:18:1,2019-04-08T11:00:00Z,26.6955,-81.8138,1.382,5.93,1111122 
SCCF RECON,ioos:station:SCCF:18:1,2019-04-08T12:00:00Z,26.6955,-81.8138,1.402,5.96,1111122 
SCCF RECON,ioos:station:SCCF:18:1,2019-04-08T13:00:00Z,26.6955,-81.8138,1.389,5.97,1111122 
SCCF RECON,ioos:station:SCCF:18:1,2019-04-08T14:00:00Z,26.6955,-81.8138,1.33,5.75,1111122 
SCCF RECON,ioos:station:SCCF:18:1,2019-04-08T15:00:00Z,26.6955,-81.8138,1.289,5.82,1111122 
SCCF RECON,ioos:station:SCCF:18:1,2019-04-08T16:00:00Z,26.6955,-81.8138,1.249,5.93,1111122 
SCCF RECON,ioos:station:SCCF:18:1,2019-04-08T17:00:00Z,26.6955,-81.8138,1.261,6.11,1111122 
SCCF RECON,ioos:station:SCCF:18:1,2019-04-08T18:00:00Z,26.6955,-81.8138,1.336,6.59,1111122 
SCCF RECON,ioos:station:SCCF:18:1,2019-04-08T19:00:00Z,26.6955,-81.8138,1.42,6.95,1111122 
SCCF RECON,ioos:station:SCCF:18:1,2019-04-08T20:00:00Z,26.6955,-81.8138,1.49,7.56,1111122 
SCCF RECON,ioos:station:SCCF:18:1,2019-04-08T21:00:00Z,26.6955,-81.8138,1.548,7.47,1111122 
SCCF RECON,ioos:station:SCCF:18:1,2019-04-08T22:00:00Z,26.6955,-81.8138,1.59,7.36,1111122 
SCCF RECON,ioos:station:SCCF:18:1,2019-04-08T23:00:00Z,26.6955,-81.8138,1.62,7.4,1111122 
SCCF RECON,ioos:station:SCCF:18:1,2019-04-09T04:00:00Z,26.6955,-81.8138,1.34,6.99,1111122 
SCCF RECON,ioos:station:SCCF:18:1,2019-04-09T05:00:00Z,26.6955,-81.8138,1.27,6.58,1111122 
SCCF RECON,ioos:station:SCCF:18:1,2019-04-09T06:00:00Z,26.6955,-81.8138,1.196,6.16,1111122 
SCCF RECON,ioos:station:SCCF:18:1,2019-04-09T07:00:00Z,26.6955,-81.8138,1.15,5.95,1111122 
SCCF RECON,ioos:station:SCCF:18:1,2019-04-09T08:00:00Z,26.6955,-81.8138,1.18,6.0,1111122 
SCCF RECON,ioos:station:SCCF:18:1,2019-04-09T09:00:00Z,26.6955,-81.8138,1.232,6.1,1111122 
SCCF RECON,ioos:station:SCCF:18:1,2019-04-09T10:00:00Z,26.6955,-81.8138,1.29,5.83,1111122 
SCCF RECON,ioos:station:SCCF:18:1,2019-04-09T11:00:00Z,26.6955,-81.8138,1.337,5.6,1111122 
SCCF RECON,ioos:station:SCCF:18:1,2019-04-09T12:00:00Z,26.6955,-81.8138,1.372,5.72,1111122 
SCCF RECON,ioos:station:SCCF:18:1,2019-04-09T13:00:00Z,26.6955,-81.8138,1.381,5.63,1111122 
SCCF RECON,ioos:station:SCCF:18:1,2019-04-09T14:00:00Z,26.6955,-81.8138,1.367,5.7,1111122 
SCCF RECON,ioos:station:SCCF:18:1,2019-04-09T15:00:00Z,26.6955,-81.8138,1.326,5.64,1111122 
SCCF RECON,ioos:station:SCCF:18:1,2019-04-09T16:00:00Z,26.6955,-81.8138,1.3,6.05,1111122 
SCCF RECON,ioos:station:SCCF:18:1,2019-04-09T17:00:00Z,26.6955,-81.8138,1.289,5.94,1111122 
SCCF RECON,ioos:station:SCCF:18:1,2019-04-09T18:00:00Z,26.6955,-81.8138,1.284,6.19,1111122 
SCCF RECON,ioos:station:SCCF:18:1,2019-04-09T19:00:00Z,26.6955,-81.8138,1.359,6.2,1111122 
SCCF RECON,ioos:station:SCCF:18:1,2019-04-09T20:00:00Z,26.6955,-81.8138,1.418,6.49,1111122 
SCCF RECON,ioos:station:SCCF:18:1,2019-04-09T21:00:00Z,26.6955,-81.8138,1.48,6.34,1111122 
SCCF RECON,ioos:station:SCCF:18:1,2019-04-09T22:00:00Z,26.6955,-81.8138,1.53,6.33,1111122 
SCCF RECON,ioos:station:SCCF:18:1,2019-04-09T23:00:00Z,26.6955,-81.8138,1.587,6.3,1111122 
SCCF RECON,ioos:station:SCCF:18:1,2019-04-10T04:00:00Z,26.6955,-81.8138,1.414,5.68,1111122 
SCCF RECON,ioos:station:SCCF:18:1,2019-04-10T05:00:00Z,26.6955,-81.8138,1.367,5.57,1111122 
SCCF RECON,ioos:station:SCCF:18:1,2019-04-10T06:00:00Z,26.6955,-81.8138,1.29,5.75,1111122 
SCCF RECON,ioos:station:SCCF:18:1,2019-04-10T07:00:00Z,26.6955,-81.8138,1.219,5.79,1111122 
SCCF RECON,ioos:station:SCCF:18:1,2019-04-10T08:00:00Z,26.6955,-81.8138,1.191,5.68,1111122 
SCCF RECON,ioos:station:SCCF:18:1,2019-04-10T09:00:00Z,26.6955,-81.8138,1.197,5.65,1111122 
SCCF RECON,ioos:station:SCCF:18:1,2019-04-10T10:00:00Z,26.6955,-81.8138,1.233,5.52,1111122 
SCCF RECON,ioos:station:SCCF:18:1,2019-04-10T11:00:00Z,26.6955,-81.8138,1.303,5.49,1111122 
SCCF RECON,ioos:station:SCCF:18:1,2019-04-10T12:00:00Z,26.6955,-81.8138,1.358,5.37,1111122 
SCCF RECON,ioos:station:SCCF:18:1,2019-04-10T13:00:00Z,26.6955,-81.8138,1.38,5.42,1111122 
SCCF RECON,ioos:station:SCCF:18:1,2019-04-10T14:00:00Z,26.6955,-81.8138,1.389,5.39,1111122 
SCCF RECON,ioos:station:SCCF:18:1,2019-04-10T15:00:00Z,26.6955,-81.8138,1.37,5.61,1111122 
SCCF RECON,ioos:station:SCCF:18:1,2019-04-10T16:00:00Z,26.6955,-81.8138,1.321,5.63,1111122 
SCCF RECON,ioos:station:SCCF:18:1,2019-04-10T17:00:00Z,26.6955,-81.8138,1.296,5.6,1111122 
SCCF RECON,ioos:station:SCCF:18:1,2019-04-10T18:00:00Z,26.6955,-81.8138,1.273,5.73,1111122 
SCCF RECON,ioos:station:SCCF:18:1,2019-04-10T19:00:00Z,26.6955,-81.8138,1.283,5.67,1111122 
SCCF RECON,ioos:station:SCCF:18:1,2019-04-10T20:00:00Z,26.6955,-81.8138,1.35,6.37,1111122 
SCCF RECON,ioos:station:SCCF:18:1,2019-04-10T21:00:00Z,26.6955,-81.8138,1.414,6.31,1111122 
SCCF RECON,ioos:station:SCCF:18:1,2019-04-10T22:00:00Z,26.6955,-81.8138,1.45,6.4,1111122 
SCCF RECON,ioos:station:SCCF:18:1,2019-04-10T23:00:00Z,26.6955,-81.8138,1.473,6.46,1111122 
SCCF RECON,ioos:station:SCCF:18:1,2019-04-11T04:00:00Z,26.6955,-81.8138,1.26,5.86,1111122 
SCCF RECON,ioos:station:SCCF:18:1,2019-04-11T05:00:00Z,26.6955,-81.8138,1.198,5.89,1111122 
SCCF RECON,ioos:station:SCCF:18:1,2019-04-11T06:00:00Z,26.6955,-81.8138,1.131,6.02,1111122 
SCCF RECON,ioos:station:SCCF:18:1,2019-04-11T07:00:00Z,26.6955,-81.8138,1.07,5.99,1111122 
SCCF RECON,ioos:station:SCCF:18:1,2019-04-11T08:00:00Z,26.6955,-81.8138,1.02,5.82,1111122 
SCCF RECON,ioos:station:SCCF:18:1,2019-04-11T09:00:00Z,26.6955,-81.8138,1.001,5.82,1111122 
SCCF RECON,ioos:station:SCCF:18:1,2019-04-11T10:00:00Z,26.6955,-81.8138,1.028,5.72,1111122 
SCCF RECON,ioos:station:SCCF:18:1,2019-04-11T11:00:00Z,26.6955,-81.8138,1.09,5.68,1111122 
SCCF RECON,ioos:station:SCCF:18:1,2019-04-11T12:00:00Z,26.6955,-81.8138,1.153,5.33,1111122 
SCCF RECON,ioos:station:SCCF:18:1,2019-04-11T13:00:00Z,26.6955,-81.8138,1.194,5.25,1111122 
SCCF RECON,ioos:station:SCCF:18:1,2019-04-11T14:00:00Z,26.6955,-81.8138,1.24,5.2,1111122 
SCCF RECON,ioos:station:SCCF:18:1,2019-04-11T15:00:00Z,26.6955,-81.8138,1.27,5.59,1111122 
SCCF RECON,ioos:station:SCCF:18:1,2019-04-11T16:00:00Z,26.6955,-81.8138,1.287,5.74,1111122 
SCCF RECON,ioos:station:SCCF:18:1,2019-04-11T17:00:00Z,26.6955,-81.8138,1.28,5.83,1111122 
SCCF RECON,ioos:station:SCCF:18:1,2019-04-11T18:00:00Z,26.6955,-81.8138,1.294,5.71,1111122 
SCCF RECON,ioos:station:SCCF:18:1,2019-04-11T19:00:00Z,26.6955,-81.8138,1.36,6.23,1111122 
SCCF RECON,ioos:station:SCCF:18:1,2019-04-11T20:00:00Z,26.6955,-81.8138,1.4,6.28,1111122 
SCCF RECON,ioos:station:SCCF:18:1,2019-04-11T21:00:00Z,26.6955,-81.8138,1.451,6.34,1111122 
SCCF RECON,ioos:station:SCCF:18:1,2019-04-11T22:00:00Z,26.6955,-81.8138,1.5,7.26,1111122 
SCCF RECON,ioos:station:SCCF:18:1,2019-04-11T23:00:00Z,26.6955,-81.8138,1.54,6.95,1111122 
SCCF RECON,ioos:station:SCCF:18:1,2019-04-12T04:00:00Z,26.6955,-81.8138,1.38,6.1,1111122 
SCCF RECON,ioos:station:SCCF:18:1,2019-04-12T05:00:00Z,26.6955,-81.8138,1.332,5.95,1111122 
SCCF RECON,ioos:station:SCCF:18:1,2019-04-12T06:00:00Z,26.6955,-81.8138,1.279,6.02,1111122 
SCCF RECON,ioos:station:SCCF:18:1,2019-04-12T07:00:00Z,26.6955,-81.8138,1.22,5.97,1111122 
SCCF RECON,ioos:station:SCCF:18:1,2019-04-12T08:00:00Z,26.6955,-81.8138,1.163,5.91,1111122 
SCCF RECON,ioos:station:SCCF:18:1,2019-04-12T09:00:00Z,26.6955,-81.8138,1.107,5.92,1111122 
SCCF RECON,ioos:station:SCCF:18:1,2019-04-12T10:00:00Z,26.6955,-81.8138,1.07,5.77,1111122 
SCCF RECON,ioos:station:SCCF:18:1,2019-04-12T11:00:00Z,26.6955,-81.8138,1.067,5.66,1111122 
SCCF RECON,ioos:station:SCCF:18:1,2019-04-12T12:00:00Z,26.6955,-81.8138,1.112,5.53,1111122 
SCCF RECON,ioos:station:SCCF:18:1,2019-04-12T13:00:00Z,26.6955,-81.8138,1.18,5.4,1111122 
SCCF RECON,ioos:station:SCCF:18:1,2019-04-12T14:00:00Z,26.6955,-81.8138,1.229,5.61,1111122 
SCCF RECON,ioos:station:SCCF:18:1,2019-04-12T15:00:00Z,26.6955,-81.8138,1.272,5.8,1111122 
SCCF RECON,ioos:station:SCCF:18:1,2019-04-12T16:00:00Z,26.6955,-81.8138,1.311,5.79,1111122 
SCCF RECON,ioos:station:SCCF:18:1,2019-04-12T17:00:00Z,26.6955,-81.8138,1.349,6.36,1111122 
SCCF RECON,ioos:station:SCCF:18:1,2019-04-12T18:00:00Z,26.6955,-81.8138,1.354,6.73,1111122 
SCCF RECON,ioos:station:SCCF:18:1,2019-04-12T19:00:00Z,26.6955,-81.8138,1.364,6.95,1111122 
SCCF RECON,ioos:station:SCCF:18:1,2019-04-12T20:00:00Z,26.6955,-81.8138,1.36,6.88,1111122 
SCCF RECON,ioos:station:SCCF:18:1,2019-04-12T21:00:00Z,26.6955,-81.8138,1.361,6.51,1111122 
SCCF RECON,ioos:station:SCCF:18:1,2019-04-12T22:00:00Z,26.6955,-81.8138,1.44,7.62,1111122 
SCCF RECON,ioos:station:SCCF:18:1,2019-04-12T23:00:00Z,26.6955,-81.8138,1.5,7.47,1111122 
SCCF RECON,ioos:station:SCCF:18:1,2019-04-13T04:00:00Z,26.6955,-81.8138,1.495,7.15,1111122 
SCCF RECON,ioos:station:SCCF:18:1,2019-04-13T05:00:00Z,26.6955,-81.8138,1.42,6.73,1111122 
SCCF RECON,ioos:station:SCCF:18:1,2019-04-13T06:00:00Z,26.6955,-81.8138,1.354,6.32,1111122 
SCCF RECON,ioos:station:SCCF:18:1,2019-04-13T07:00:00Z,26.6955,-81.8138,1.31,6.44,1111122 
SCCF RECON,ioos:station:SCCF:18:1,2019-04-13T08:00:00Z,26.6955,-81.8138,1.27,6.19,1111122 
SCCF RECON,ioos:station:SCCF:18:1,2019-04-13T09:00:00Z,26.6955,-81.8138,1.201,6.04,1111122 
SCCF RECON,ioos:station:SCCF:18:1,2019-04-13T10:00:00Z,26.6955,-81.8138,1.15,6.07,1111122 
SCCF RECON,ioos:station:SCCF:18:1,2019-04-13T11:00:00Z,26.6955,-81.8138,1.105,6.22,1111122 
SCCF RECON,ioos:station:SCCF:18:1,2019-04-13T12:00:00Z,26.6955,-81.8138,1.08,5.83,1111122 
SCCF RECON,ioos:station:SCCF:18:1,2019-04-13T13:00:00Z,26.6955,-81.8138,1.084,5.76,1111122 
SCCF RECON,ioos:station:SCCF:18:1,2019-04-13T14:00:00Z,26.6955,-81.8138,1.13,5.91,1111122 
SCCF RECON,ioos:station:SCCF:18:1,2019-04-13T15:00:00Z,26.6955,-81.8138,1.193,6.15,1111122 
SCCF RECON,ioos:station:SCCF:18:1,2019-04-13T16:00:00Z,26.6955,-81.8138,1.246,6.08,1111122 
SCCF RECON,ioos:station:SCCF:18:1,2019-04-13T17:00:00Z,26.6955,-81.8138,1.301,6.2,1111122 
SCCF RECON,ioos:station:SCCF:18:1,2019-04-13T18:00:00Z,26.6955,-81.8138,1.369,6.7,1111122 
SCCF RECON,ioos:station:SCCF:18:1,2019-04-13T19:00:00Z,26.6955,-81.8138,1.401,7.19,1111122 
SCCF RECON,ioos:station:SCCF:18:1,2019-04-13T20:00:00Z,26.6955,-81.8138,1.412,6.43,1111122 
SCCF RECON,ioos:station:SCCF:18:1,2019-04-13T21:00:00Z,26.6955,-81.8138,1.42,6.03,1111122 
SCCF RECON,ioos:station:SCCF:18:1,2019-04-13T22:00:00Z,26.6955,-81.8138,1.419,6.07,1111122 
SCCF RECON,ioos:station:SCCF:18:1,2019-04-13T23:00:00Z,26.6955,-81.8138,1.42,5.89,1111122 
SCCF RECON,ioos:station:SCCF:18:1,2019-04-14T04:00:00Z,26.6955,-81.8138,1.494,6.5,1111122 